Regional Weather Roundup
Issued by NWS

Home | Current Version | Previous Version | Text Only | Print | Product List | Glossary Off
Versions: 1 2 3 4 5 6 7 8 9 10 11 12 13 14 15 16 17 18 19 20 21 22 23 24 25 26 27 28 29 30 31 32 33 34 35 36 37 38 39 40 41 42 43 44 45 46 47 48 49 50

000
ASUS43 KDMX 211706
RWRIA

WEATHER ROUNDUP FOR IOWA
NATIONAL WEATHER SERVICE DES MOINES IA
1200 PM CDT MON MAY 21 2018

NOTE: "FAIR" INDICATES FEW OR NO CLOUDS BELOW 12,000 FEET WITH NO
SIGNIFICANT WEATHER AND/OR OBSTRUCTIONS TO VISIBILITY.

* - THESE STATIONS ARE NOT NWS STATIONS...THUS NOT UNDER NWS
QUALITY CONTROL.  THEY ALSO DO NOT REPORT WEATHER SUCH
AS PRECIPITATION OR FOG.

IAZ001>003-012>014-020>022-031>034-043>046-211800-
   NORTHWEST IOWA

CITY           SKY/WX    TMP DP  RH WIND       PRES   REMARKS
CARROLL *      PTSUNNY  N/A N/A N/A W6        30.03S
CHEROKEE *     RAIN      59  59 100 CALM      30.04S
DENISON *      PTSUNNY   64  63  94 S3        30.04F
LE MARS *      CLOUDY    61  59  94 W3        30.03S
ORANGE CITY *  CLOUDY    61  57  88 CALM      30.04S FOG
SHELDON *      CLOUDY    59  59 100 CALM      30.02S
SIOUX CITY     CLOUDY    63  57  81 NW7       30.03F
SPENCER        CLOUDY    59  56  89 SE7       30.04S FOG
STORM LAKE *   PTSUNNY   59  59 100 CALM      30.03F FOG
$$

IAZ055>058-069>071-079>083-090>094-211800-
   SOUTHWEST IOWA

CITY           SKY/WX    TMP DP  RH WIND       PRES   REMARKS
ATLANTIC *     CLOUDY    66  61  82 W3        30.04S
AUDUBON *      CLOUDY    63  61  94 SW5       30.05R
CLARINDA *     CLOUDY    63  59  88 W6        30.07S FOG
COUNCIL BLFS * CLOUDY    59  59 100 VRB6      30.05S
CRESTON *      CLOUDY    64  61  88 W7        30.05S
HARLAN  *      CLOUDY    63  63 100 W7        30.07S
LAMONI         CLOUDY    66  61  84 W8        30.04S
RED OAK *      CLOUDY    64  59  82 VRB5      30.05S
SHENANDOAH *   CLOUDY    66  59  77 W5        30.06S
$$

IAZ047>049-059>061-072>074-084-211800-
   CENTRAL IOWA

CITY           SKY/WX    TMP DP  RH WIND       PRES   REMARKS
AMES           CLOUDY    60  57  89 CALM      30.03S
ANKENY *       CLOUDY    61  59  94 CALM      30.04R
BOONE *        CLOUDY    59  59 100 CALM      30.02F FOG
CHARITON *     PTSUNNY   63  63 100 VRB6      30.03S
DES MOINES     CLOUDY    62  59  90 CALM      30.02S
GRINNELL*      CLOUDY    59  58  94 CALM      30.04S FOG
KNOXVILLE *    CLOUDY    61  61 100 NW8       30.02R FOG
MARSHALLTOWN   CLOUDY    59  58  96 CALM      30.02F FOG
NEWTON *       CLOUDY    59  59 100 CALM      30.03R FOG
PELLA *        CLOUDY    61  60  97 W5        30.03S FOG
PERRY *        CLOUDY    62  60  94 CALM      30.04R
$$

IAZ004>006-015-016-023>025-035-036-211800-
   NORTH CENTRAL IOWA

CITY           SKY/WX    TMP DP  RH WIND       PRES   REMARKS
ALGONA *       SUNNY     59  57  94 E3        30.04F FOG
CLARION *      PTSUNNY   57  55  94 CALM      30.04F FOG
ESTHERVILLE    CLOUDY    59  56  89 S3        30.03F
FORT DODGE *   CLOUDY    60  57  89 CALM      30.04S
MASON CITY     CLOUDY    57  55  93 E5        30.06F
FOREST CITY *  CLOUDY    59  57  94 CALM      30.05R
WEBSTER CITY * CLOUDY    61  59  94 E3        30.01F
IOWA FALLS *   CLOUDY    58  56  94 CALM      30.05S FOG
$$

IAZ007>011-017>019-026>030-037>042-050>054-066-211800-
   NORTHEAST IOWA

CITY           SKY/WX    TMP DP  RH WIND       PRES   REMARKS
CEDAR RAPIDS   CLOUDY    58  58 100 E8        30.02S FOG
CHARLES CITY * CLOUDY    55  54  94 E7        30.05S
CLINTON *      CLOUDY    61  59  93 SE9       30.05F FOG
DECORAH *      PTSUNNY   54  54 100 E9        30.06S FOG
DUBUQUE        LGT RAIN  56  55  97 E8        30.05F FOG
MONTICELLO *   FAIR      57  57 100 E7        30.03F
OELWEIN *      CLOUDY    57  55  94 SE9       30.04S
WATERLOO       CLOUDY    57  56  96 SE3       30.03S
$$

IAZ064-065-067-068-078-211800-
   EAST CENTRAL IOWA

CITY           SKY/WX    TMP DP  RH WIND       PRES   REMARKS
DAVENPORT      CLOUDY    60  58  92 SE8       30.06F FOG
IOWA CITY      CLOUDY    61  59  93 SE7       30.03F FOG
MT. PLEASANT * CLOUDY    70  66  88 S5        30.01F
MUSCATINE *    CLOUDY    64  61  88 VRB6      30.03S
QUAD CITIES    CLOUDY    61  60  97 E6        30.03F FOG
$$

IAZ062-063-075>077-085>089-095>099-211800-
   SOUTHEAST IOWA

CITY           SKY/WX    TMP DP  RH WIND       PRES   REMARKS
BURLINGTON     CLOUDY    67  64  90 S7        30.02S
FAIRFIELD *    CLOUDY    70  64  83 SW6       30.00S
FORT MADISON * CLOUDY    70  66  88 CALM      30.02F
KEOKUK *       CLOUDY    70  66  88 S7        30.01F
OSKALOOSA *    CLOUDY    63  63  99 W9        30.02R FOG
CENTERVILLE *    N/A     66  66 100 W10       30.05R
OTTUMWA        CLOUDY    68  64  87 SW10      30.00S
WASHINGTON *   MOSUNNY   66  66 100 S10       30.02F FOG
$$

ABBREVIATIONS USED IN REMARKS
   TC - TEMPERATURES IN CELSIUS
  WCI - WIND CHILL INDEX
   HX - HEAT INDEX
  VSB - VISIBILITY
$$





USA.gov is the U.S. government's official web portal to all federal, state and local government web resources and services.